Regional Weather Roundup
Issued by NWS

Home | Current Version | Previous Version | Graphics & Text | Print | Product List | Glossary On
Versions: 1 2 3 4 5 6 7 8 9 10 11 12 13 14 15 16 17 18 19 20 21 22 23 24 25 26 27 28 29 30 31 32 33 34 35 36 37 38 39 40 41 42 43 44 45 46 47 48 49 50
000
ASUS43 KOAX 190802
RWRNE

WEATHER ROUNDUP FOR NEBRASKA
NATIONAL WEATHER SERVICE OMAHA NE
200 AM CST FRI DEC 19 2014

NOTES: SATELLITE DATA IS BEING USED TO AUGMENT CLOUD COVER ABOVE
       12000 FEET.
       "FAIR" INDICATES FEW OR NO CLOUDS BELOW 12,000 FEET WITH NO
       SIGNIFICANT WEATHER AND/OR OBSTRUCTIONS TO VISIBILITY.

  * THESE STATIONS DO NOT REPORT WEATHER SUCH AS RAIN...SNOW OR FOG.

NEZ001>004-019>022-054>056-190900-
NEBRASKA PANHANDLE

CITY           SKY/WX    TMP DP  RH WIND       PRES   REMARKS
SCOTTSBLUFF    CLEAR      6   3  87 N3        30.06F
ALLIANCE       PTCLDY     6   3  87 W9        30.05F WCI  -8
CHADRON        PTCLDY    13   9  84 W3        30.05F
KIMBALL        PTCLDY    24  20  86 W8        30.05F WCI  14
SIDNEY         PTCLDY    21  15  78 NW14      30.07F WCI   8
$$

NEZ057>060-069>072-079>082-190900-
SOUTHWEST NEBRASKA

CITY           SKY/WX    TMP DP  RH WIND       PRES   REMARKS
NORTH PLATTE   FOG       16  12  84 N3        30.11S VSB 1/2
IMPERIAL       PTCLDY    19  15  84 CALM      30.10F FOG
MCCOOK         FOG       25  25 100 S8        30.14F VSB 1/4 WCI  16
$$

NEZ005>010-023>029-035>040-094-190900-
NORTH CENTRAL NEBRASKA

CITY           SKY/WX    TMP DP  RH WIND       PRES   REMARKS
VALENTINE      CLEAR     12   9  87 SW7       30.05F WCI   1
AINSWORTH      PTCLDY    13  11  91 SW3       30.05F
BROKEN BOW     CLOUDY    26  25  96 SW8       30.10F FOG     WCI  18
$$

NEZ041-046>049-061>064-073>077-083>087-190900-
SOUTH CENTRAL NEBRASKA

CITY           SKY/WX    TMP DP  RH WIND       PRES   REMARKS
GRAND ISLAND   CLOUDY    29  25  85 SW10      30.18S WCI  20
AURORA         CLOUDY    31  28  92 SW7       30.18S WCI  24
HASTINGS       CLOUDY    30  26  85 S5        30.16F WCI  25
KEARNEY *      CLOUDY    28  25  86 SW8       30.16S WCI  20
$$

NEZ011>018-030>034-042>045-190900-
NORTHEAST NEBRASKA

CITY           SKY/WX    TMP DP  RH WIND       PRES   REMARKS
NORFOLK        CLOUDY    30  26  85 S7        30.16F WCI  23
BLAIR          CLOUDY    31  28  90 S6        30.21S FOG     WCI  25
COLUMBUS *     CLOUDY    30  23  74 S6        30.19F WCI  24
FREMONT        CLOUDY    32  30  94 S5        30.21F FOG     WCI  27
TEKAMAH        CLOUDY    31  28  89 S7        30.22F WCI  24
$$

NEZ050>053-065>068-078-088>093-190900-
SOUTHEAST NEBRASKA

CITY           SKY/WX    TMP DP  RH WIND       PRES   REMARKS
LINCOLN        CLOUDY    31  29  92 S3        30.23F
OMAHA EPPLEY   CLOUDY    31  28  89 S6        30.24F WCI  25
FALLS CITY     CLOUDY    30  27  88 CALM      30.25S FOG
PLATTSMOUTH    CLOUDY    29  27  92 S5        30.22F FOG     WCI  24
$$

NEZ044-045-051>053-067-190900-
OMAHA AREA

CITY           SKY/WX    TMP DP  RH WIND       PRES   REMARKS
OMAHA EPPLEY   CLOUDY    31  28  89 S6        30.24F WCI  25
BLAIR          CLOUDY    31  28  90 S6        30.21S FOG     WCI  25
FREMONT        CLOUDY    32  30  94 S5        30.21F FOG     WCI  27
OFFUTT AFB     CLOUDY    30  28  91 S6        30.23F WCI  24
PLATTSMOUTH    CLOUDY    29  27  92 S5        30.22F FOG     WCI  24
$$


USA.gov is the U.S. government's official web portal to all federal, state and local government web resources and services.